Location: Duac?
(36.9744°N, 30.6500°E)
Time: 06:16:48
(UTC+00:00)

Cosmos 2058 Rocket - Pass Details

Date: 05 August 2024
Orbit: 608 x 634 km, 82.5° (Epoch: 10 September)

Event Time Altitude Azimuth Distance (km) Brightness Sun altitude
Rises 18:24:23 0° 357° (N) 2,891 7.1 -15.6°
Reaches altitude 10° 18:26:38 10° 1° (N) 1,986 6.1 -16.0°
Maximum altitude 18:30:59 60° 81° (E) 715 3.1 -16.7°
Enters shadow 18:32:57 30° 150° (SSE) 1,107 3.8 -17.0°
